NOAA 16 DEB, 41084

Orbit data source: Space-Track

NOAA 16 DEB, 41084 is space debris in SSO originally from a launch on Thu, 21 Sep 2000 UTC launched from the Air Force Western Test Range (AFWTR). Debris objects in space refer to the collection of defunct objects orbiting the Earth. Examples of debris include non-operational satellites, rocket bodies, and fragments generated from explosions, collisions, or faulty payload assembly.

Loading next visibility...
Identifier
41084, 2000-055AT
Orbit
SSO
Country
Flag of USUS
Related business
Manufacturer
Unknown
Mission
Spacecraft
Bus & Motor
Unknown
Mass
Unknown
Launch date (UTC)
2000-09-21 (26 years ago)
Launch vehicle
Unknown
Launch site
Air Force Western Test Range (AFWTR)
Object type
Payload
Rocket body
Debris
Shape & HBR
Unknown shape, 0.1 m
Radar Cross Section
Medium (>0.1 m² and <1 m²)

Expand to show TLE details & history
Last TLE update: 18 hours ago

TLE from 18 hours ago
0 NOAA 16 DEB
1 41084U 00055AT  26166.19284528  .00001033  00000-0  47162-3 0  9997
2 41084  98.6933 252.8011 0015224 222.2596 137.7410 14.23674284545882
Epoch: 2026-06-15T04:37Z
TLE epoch observation values (Epoch: 2026-06-15T04:37:41.832Z)
Latitude
-0.00003°
Longitude
-80.10595°
Altitude
823.985 km
Speed
7.437 km/s
True Right ascension
16h 51m 12s
True Declination
0° 00' 00"
Sunlit
Object was in full shadow at epoch
Visualization orbit readout
Latitude
Unknown
Longitude
Unknown
Altitude
Unknown
Speed
Unknown
Apparent Right ascension
Unknown
Apparent Declination
Unknown
Sunlit
N/A
Visualization observer readout
Local Sidereal Time
09:13:38
Azimuth
Unknown
Elevation
Unknown
Doppler factor
Unknown
Orbital elements
Apogee altitude
821.05 km
Perigee altitude
799.163 km
Semi-major axis
7,188.243 km
Eccentricity
0.00152
Inclination
98.6933°
RAAN
252.8011°
Arg. of periapsis
222.2596°
True anomaly
137.85815°
Mean anomaly
137.741°
Eccentric anomaly
137.79959°
Mean motion
3.5613 °/min
Orbital period
101.09 mins
BSTAR
0.00047162
Loading maneuver chart data...
Computing Atmospheric mass density...
Loading historical data...
Loading historical data...
Loading historical data...
Loading historical data...
Loading historical data...
Loading historical data...
Loading historical data...

Documentation

Showing up to 5 results
|